This is the latest recevied weather packets stored in our database for station/object GBTWP-2. If no packets are shown the sender has not sent any weather packets the latest 10 day(s).
| Time | Temp. | Humidity | Pressure | Rain* | Wind** | Luminosity | Snow |
|---|---|---|---|---|---|---|---|
| 1788473520 | 21.11° C | 97% | 1016.7 hPa | 0 mm | - | 36 W/m² | - |
| 1788473219 | 21.11° C | 97% | 1016.8 hPa | 0 mm | - | 19 W/m² | - |
| 1788472920 | 21.11° C | 97% | 1016.8 hPa | 0 mm | - | 16 W/m² | - |
| 1788472620 | 21.11° C | 97% | 1017.1 hPa | 0 mm | - | 16 W/m² | - |
| 1788472320 | 21.11° C | 96% | 1017.3 hPa | 0 mm | - | 15 W/m² | - |
| 1788472017 | 21.67° C | 96% | 1017.2 hPa | 0 mm | - | 44 W/m² | - |
| 1788471719 | 21.11° C | 96% | 1017.8 hPa | 0 mm | - | 48 W/m² | - |
| 1788471423 | 21.11° C | 96% | 1017.6 hPa | 0 mm | - | 40 W/m² | - |
| 1788471120 | 21.67° C | 96% | 1018 hPa | 0 mm | - | 30 W/m² | - |
| 1788470819 | 21.67° C | 96% | 1017.9 hPa | 0 mm | - | 28 W/m² | - |
| 1788470519 | 21.67° C | 96% | 1017.8 hPa | 0 mm | - | 37 W/m² | - |
| 1788470217 | 21.67° C | 96% | 1017.8 hPa | 0 mm | - | 45 W/m² | - |
| 1788469919 | 21.11° C | 95% | 1017.3 hPa | 0 mm | - | 73 W/m² | - |
| 1788469620 | 21.11° C | 95% | 1017.1 hPa | 0 mm | - | 71 W/m² | - |
| 1788469319 | 21.11° C | 96% | 1017.6 hPa | 0 mm | - | 59 W/m² | - |
| 1788469020 | 21.67° C | 96% | 1017.1 hPa | 0 mm | - | 64 W/m² | - |
| 1788468719 | 21.11° C | 96% | 1017.6 hPa | 0 mm | - | 140 W/m² | - |
| 1788468420 | 21.11° C | 96% | 1017.6 hPa | 0 mm | - | 164 W/m² | - |
| 1788468119 | 21.11° C | 96% | 1017.4 hPa | 0 mm | - | 147 W/m² | - |
| 1788467820 | 21.11° C | 96% | 1017.6 hPa | 1.27 mm | - | 248 W/m² | - |
| 1788467519 | 21.11° C | 96% | 1017.7 hPa | 1.27 mm | - | 157 W/m² | - |
| 1788467225 | 21.11° C | 96% | 1018 hPa | 0 mm | - | 199 W/m² | - |
| 1788466919 | 21.11° C | 96% | 1018.6 hPa | 0 mm | - | 94 W/m² | - |
| 1788466620 | 20.56° C | 96% | 1019 hPa | 1.78 mm | - | 193 W/m² | - |
| 1788466320 | 20.56° C | 96% | 1019 hPa | 3.05 mm | - | 52 W/m² | - |
* Rain latest hour (hover to see other rain measurements)
** Current wind speed in m/s (hover to see current wind gust speed)